Regional Weather Roundup
Issued by NWS Charleston, WV

Home | Current Version | Previous Version | Graphics & Text | Print | Product List | Glossary On
Versions: 1 2 3 4 5 6 7 8 9 10 11 12 13 14 15 16 17 18 19 20 21 22 23 24 25 26 27 28 29 30 31 32 33 34 35 36 37 38 39 40 41 42 43 44 45 46 47 48 49 50
000
ASUS41 KRLX 301910
RWRRLX
West Virginia Regional Weather Roundup
National Weather Service Charleston WV
300 PM EDT FRI SEP 30 2016

Note: "fair" indicates few or no clouds below 12,000 feet with no
significant weather and/or obstructions to visibility.

WVZ003-302000-
Northern Panhandle of West Virginia

CITY           SKY/WX    TMP DP  RH WIND       PRES   REMARKS
WHEELING       RAIN      62  58  86 NE15      30.06F FOG
$$

WVZ009-302000-
Northwest West Virginia

CITY           SKY/WX    TMP DP  RH WIND       PRES   REMARKS
PARKERSBURG    PTSUNNY   69  60  73 E6        30.01F
$$

WVZ006-302000-
Western West Virginia

CITY           SKY/WX    TMP DP  RH WIND       PRES   REMARKS
HUNTINGTON     CLOUDY    64  57  78 W3        30.00F
$$

WVZ015-302000-
West Central West Virginia

CITY           SKY/WX    TMP DP  RH WIND       PRES   REMARKS
CHARLESTON     CLOUDY    64  59  83 SW10      29.99S
$$

WVZ022-031-302000-
North Central West Virginia

CITY           SKY/WX    TMP DP  RH WIND       PRES   REMARKS
CLARKSBURG     LGT RAIN  61  59  93 E15       30.03F
MORGANTOWN     RAIN      63  55  75 CALM      30.10S
$$

WVZ025-035-042-045-302000-
Southern West Virginia

CITY           SKY/WX    TMP DP  RH WIND       PRES   REMARKS
BECKLEY        MOSUNNY   71  57  61 E9G24     29.99F
LOGAN          CLOUDY    59  59 100 CALM      30.02F
BLUEFIELD      MOSUNNY   71  51  49 S9G18     30.02F
LEWISBURG      CLOUDY    65  59  81 E8G16     30.05S
$$

WVZ047-302000-
Northern Mountains of West Virginia

CITY           SKY/WX    TMP DP  RH WIND       PRES   REMARKS
ELKINS         LGT RAIN  60  57  89 CALM      30.08F FOG
$$

WVZ052-302000-
Eastern Panhandle of West Virginia

CITY           SKY/WX    TMP DP  RH WIND       PRES   REMARKS
MARTINSBURG    CLOUDY    59  56  89 N12       30.15F
PETERSBURG     CLOUDY    59  58  96 NE5       30.12F FOG
$$




USA.gov is the U.S. government's official web portal to all federal, state and local government web resources and services.